Regional Weather Roundup
Issued by NWS Charleston, SC

Current Version | Previous Version | Graphics & Text | Print | Product List | Glossary On
Versions: 1 2 3 4 5 6 7 8 9 10 11 12 13 14 15 16 17 18 19 20 21 22 23 24 25 26 27 28 29 30 31 32 33 34 35 36 37 38 39 40 41 42 43 44 45 46 47 48 49 50
000 ASUS42 KCHS 240312 RWRCHS REGIONAL WEATHER ROUNDUP NATIONAL WEATHER SERVICE CHARLESTON SC 1100 PM EDT THU MAR 23 2017 NOTE: "FAIR" INDICATES FEW OR NO CLOUDS BELOW 12,000 FEET WITH NO SIGNIFICANT WEATHER AND/OR OBSTRUCTIONS TO VISIBILITY. NOT ALL STATIONS ARE QUALITY CONTROLLED. USE DATA WITH CAUTION... ESPECIALLY DEWPOINT OBSERVATIONS. SCZ027-030-031-034>040-042>050-240400- ...SOUTHEAST SOUTH CAROLINA... CITY SKY/WX TMP DP RH WIND PRES REMARKS N CHARLESTON CLEAR 49 40 71 NE7 30.50R WATERFRONT PRK N/A 54 47 77 NE7 30.48S JOHNS ISLAND FAIR 54 45 71 NE9 30.49S PINOPOLIS N/A 48 39 71 E5 30.42S MONCKS CORNER FAIR 46 36 66 E3 30.51S SUMMERVILLE FAIR 48 37 66 E3 30.51S BEAUFORT MCAS CLEAR 52 44 74 NE7 30.48S BEAUFORT ARPT FAIR 52 45 76 NE10 30.47F HILTON HEAD IS CLEAR N/A N/A N/A NE10G18 30.48S WALTERBORO CLEAR 48 37 66 CALM 30.50S ALLENDALE FAIR 54 41 62 VRB6 30.47R ...SOUTHERN MIDLANDS AND PEE DEE... CITY SKY/WX TMP DP RH WIND PRES REMARKS GEORGETOWN FAIR 48 36 61 E6 30.52S KINGSTREE FAIR 43 34 70 E5 30.52S ORANGEBURG CLEAR 50 35 56 E3 30.50R BARNWELL FAIR 55 37 50 E7G14 30.48R AIKEN FAIR 52 32 46 E5 30.50R MANNING FAIR 45 34 65 CALM 30.51S COLUMBIA PTCLDY 52 31 44 SE7 30.49R SUMTER CLEAR 50 36 59 SE10 30.49R FLORENCE CLEAR 46 34 62 SE8 30.53R MYRTLE BEACH CLEAR 52 36 54 E10 30.53F N MYRTLE BEACH CLEAR 51 35 54 E13G20 30.52S $$ GAZ063-065-086>088-099>101-113>116-118-119-134>141-150-240400- ...SOUTHEAST GEORGIA... CITY SKY/WX TMP DP RH WIND PRES REMARKS SAVANNAH ARPT CLEAR 54 46 74 NE7 30.47R HUNTER AAF CLEAR 55 51 86 NE6 30.44R FORT STEWART CLEAR 53 48 83 NE5 30.44R STATESBORO CLEAR 55 44 67 CALM 30.47R SYLVANIA CLEAR N/A N/A N/A SE3 30.48R CLAXTON FAIR N/A N/A N/A NE6 30.46S ...CSRA...CENTRAL AND FAR SOUTHEAST GEORGIA... CITY SKY/WX TMP DP RH WIND PRES REMARKS THOMSON CLOUDY 57 34 43 S7 30.51R AUGUSTA-BUSH CLEAR 55 37 50 SE5 30.47R AUGUSTA-DANIEL CLEAR 57 33 40 E7 30.47R SWAINSBORO CLOUDY 59 43 55 SE9 30.46R VIDALIA CLOUDY 57 46 67 SE5 30.45R EASTMAN CLOUDY 62 34 35 SE6 30.46S HAZLEHURST FAIR 57 48 72 E3 30.43R ALMA MOCLDY 55 51 86 E5 30.43R WAYCROSS CLOUDY 59 57 92 E9 30.43S JESUP CLOUDY 55 50 82 E3 30.44S BAXLEY FAIR 55 54 94 E8 30.44R BRUNSWICK PTCLDY 59 55 88 NE9G16 30.43F SAINT SIMONS CLOUDY 59 55 87 NE12 30.42S $$ SCZ027-028-034-036>038-045-046-048>050-GAZ119-141-240400- ...LAKE AND SUPPLEMENTAL COASTAL OBSERVATIONS... STATION/POSITION TIME TEMP WIND PRES WAVE SWELL AIR SEA DIR/SP/G HT/PER HT/PER/DIR (UTC) (F) (DEG/KT/KT) (MB) (FT/S) (FT/S/D) WINYAH BAY 0145 53 90/ 8 1033.0 LAKE MURRAY 0220 54 80/ 4/ 6 1031.2 ACE BASIN NERRS NOT AVBL FORT PULASKI 0248 57 61 70/ 19/ 24 1031.6S SAPELO ISLAND 0200 58 50/ 11 1031.0 $$ ANZ835-935-AMZ111-154-330-350-352-354-370-450-454-472-240400- ...C-MAN AND BUOY OBSERVATIONS... STATION/POSITION TIME TEMP WIND PRES WAVE SWELL AIR SEA DIR/SP/G HT/PER HT/PER/DIR (UTC) (F) (DEG/KT/KT) (MB) (FT/S) (FT/S/D) BUOY 41004 0150 62 71 60/ 19/ 23 1030.9 7/ 7 BUOY 41008 0150 60 62 60/ 19/ 23 1029.5 7/ 8 2/100/11 FOLLY BEACH CMAN 0200 56 60/ 19/ 22 1032.6R CAPERS NEARSHORE 0208 56 70/ 19/ 23 1032.1R FRIPP NEARSHORE 0208 57 60 60/ 19/ 27 1030.9F STATION/POSITION TIME TEMP WIND PRES WAVE SWELL AIR SEA DIR/SP/G HT/PER HT/PER/DIR (UTC) (F) (DEG/KT/KT) (MB) (FT/S) (FT/S/D) 5E ST. MARYS GA 0230 63 N/A 6/ 7 2/ 90/11 FRYING PAN BUOY 0250 57 66 60/ 16/ 19 1033.3S 6/ 6 3/ 90/11 BUOY 41025 0250 51 71 40/ 8/ 14 1035.3F 8/11 7/ 30/11 CAPE LOOKOUT NC 0200 48 40/ 13/ 15 1034.6F BUOY 41002 0250 62 72 40/ 17/ 21 1032.1R 7/10 5/ 20/10 BUOY 41010 NOT AVBL ST AUGUSTINE FL 0300 66 65 90/ 14/ 15 1029.7R $$

USA.gov is the U.S. government's official web portal to all federal, state and local government web resources and services.